Das Wetter in  D-61279 Heinzenberg / Taunus





Wetter Minimum- & Maximum-Werte im August 2015

Standort: Heinzenberg / Taunus - Höhe 297 m         8 24' 1" Ost 50 21' 51" Nord
(   3-stündige Aktualisierung    letzte Aktualisierung um 19:04 am 31.08.2015  )


Messgrösse

Minimum

Maximum

Durchschnitt

Temperatur West /
Luftfeuchte West
Anklicken für Monats-Diagramm

8,6 C

07:12
19.08.2015

26 %

17:51
02.08.2015

39,3 C

17:25
07.08.2015

92 %

02:14
17.08.2015

Temp

20,6 C

Feuchte

66 %

Temperatur Ost /
Luftfeuchte Ost
Anklicken für Monats-Diagramm

9,1 C

07:17
19.08.2015

--

--
--

38,2 C

17:25
07.08.2015

--

--
--

20,5 C

--

Luftdruck Anklicken für Monats-Diagramm

1003,8 hPa

18:57
23.08.2015

1025,8 hPa

09:06
21.08.2015

1015,2 hPa

Taupunkt

4,8 C

04:00
01.08.2015

21,0 C

11:58
30.08.2015

13,2 C

Windchill
( gefühlte Temperatur )

3,9 C

05:49
25.08.2015

39,3 C

17:25
07.08.2015

19,7 C

Windgeschwindigkeit /
Windrichtung
Anklicken für Monats-Diagramm

---

58,6 km/h / W-SW

02:39
25.08.2015

7,7 km/h
W-SW

Helligkeit /
Sonnenschein
Anklicken für Monats-Diagramm
Anklicken für Monats-Diagramm

Sonnenschein:

195:52 Stunden

Max: 12:45 Std am
03.08.2015

109 klux

14:23
15.08.2015

31 klux

Solarstrahlung Anklicken für Monats-Diagramm

---

746 W/m

14:23
15.08.2015

225 W/m

Regenmenge
    August 2015
Anklicken für Monats-Diagramm

Insgesamt 51,1 l/m

in 48:15 Stunden
an 14 Tagen

12,2 l/m

10:44
16.08.2015

Gesamtmenge

51,1 l/m

Regen-Tage
    August 2015
Anklicken für Monats-Diagramm

>   0 mm/Tag

>   2 mm/Tag

>   5 mm/Tag

> 10 mm/Tag

> 20 mm/Tag

14 Tage     
8 Tage     
5 Tage     
  1 Tag     
0 Tage     

Eisige Tage August 2015 / 2014

Tmin ≤ -10C     

0 Tage

/

0 Tage

Eistage August 2015 / 2014

Tmax <     0C     

0 Tage

/

0 Tage

Frosttage August 2015 / 2014

Tmin ≤     0C     

0 Tage

/

0 Tage

Kalte Tage August 2015 / 2014

Tmax <   10C     

0 Tage

/

0 Tage

Warme Tage August 2015 / 2014

Tmax ≥   20C     

28 Tage

/

18 Tage

Sommertage August 2015 / 2014

Tmax ≥   25C     

24 Tage

/

7 Tage

Heisse Tage August 2015 / 2014

Tmax ≥   30C     

15 Tage

/

0 Tage


Monatsdiagramm August 2015

Die Kurven zeigen den Durchschnittswert des jeweiligen Tages an


Wetter-Monatsübersicht August 2015
Datum
  Temperatur
   Luftdruck
   Wind
  Regen
   Luftfeuchte
   Helligkeit

Sonnen-
schein


Temp.

Min.
Temp.

Max.
Temp.


Luftdruck

Min.
Luftdruck

Max.
Luftdruck

-Geschw.
Haupt-Richtg.

Max.
Wind

Menge /
Dauer


Feuchte

Min.
Feuchte

Max.
Feuchte


Helligkeit

Max.
Helligkeit

1.
August
18,8 C10,3 C
05:05
29,3 C
18:45
1014,4 hPa1011,7 hPa
14:50
1017,1 hPa
23:56
3,1 km/h
SO
19,1 km/h
15:40  
---
53 %30 %
17:50
72 %
07:05
35,4 klux81,3 klux
14:50
7:16 Std 
2.
August
21,4 C11,2 C
06:56
32,5 C
16:16
1017,9 hPa1015,3 hPa
18:01
1020,6 hPa
08:16
4,2 km/h
SO
21,7 km/h
17:11  
---
52 %26 %
17:51
78 %
07:31
40,9 klux84,4 klux
14:21
10:50 Std 
3.
August
23,6 C12,2 C
06:47
35,0 C
18:47
1015,5 hPa1011,9 hPa
18:47
1018,3 hPa
02:42
8,2 km/h
SO
33,7 km/h
14:17  
---
49 %26 %
16:57
74 %
07:12
42,0 klux74,7 klux
13:52
12:45 Std 
4.
August
19,2 C13,4 C
23:59
28,0 C
10:58
1014,1 hPa1009,8 hPa
10:23
1019,6 hPa
23:59
7,9 km/h
SO
51,6 km/h
12:08  
4,9 l/m
2:50 Stunden
69 %44 %
10:53
87 %
15:38
20,1 klux57,4 klux
10:38
2:30 Std 
5.
August
19,3 C9,6 C
06:24
30,2 C
16:19
1017,7 hPa1013,5 hPa
17:59
1021,1 hPa
06:24
5,0 km/h
O-SO
25,3 km/h
16:49  
---
63 %35 %
17:59
89 %
09:44
41,7 klux76,1 klux
13:14
11:15 Std 
6.
August
24,3 C12,6 C
05:59
36,7 C
18:39
1014,3 hPa1011,8 hPa
18:39
1016,5 hPa
07:34
3,9 km/h
W-SW
28,0 km/h
15:04  
---
56 %28 %
17:14
81 %
07:39
38,4 klux86,9 klux
14:39
9:00 Std 
7.
August
27,5 C17,0 C
07:05
39,3 C
17:25
1013,6 hPa1011,5 hPa
17:25
1015,5 hPa
01:10
6,1 km/h
NO
28,5 km/h
18:30  
---
54 %26 %
17:30
77 %
07:25
40,4 klux85,3 klux
14:40
10:55 Std 
8.
August
24,8 C20,1 C
07:41
31,7 C
13:51
1017,8 hPa1014,1 hPa
00:01
1021,8 hPa
23:27
9,7 km/h
NW
38,6 km/h
03:26  
0,8 l/m
35 Minuten
64 %45 %
13:51
80 %
08:46
37,0 klux81,9 klux
13:46
8:30 Std 
9.
August
23,3 C17,3 C
07:17
30,8 C
15:07
1018,0 hPa1014,6 hPa
18:47
1020,9 hPa
02:47
4,9 km/h
NO
17,6 km/h
15:22  
---
65 %49 %
14:52
80 %
07:27
28,5 klux80,3 klux
14:57
2:50 Std 
10.
August
22,3 C18,0 C
06:08
30,6 C
14:03
1014,9 hPa1012,4 hPa
14:03
1017,8 hPa
05:03
9,9 km/h
W
32,5 km/h
18:33  
5,0 l/m
1:50 Stunden
72 %53 %
13:53
87 %
07:53
35,1 klux74,1 klux
14:18
7:15 Std 
11.
August
22,4 C16,8 C
03:54
30,3 C
17:34
1016,4 hPa1014,5 hPa
18:29
1019,6 hPa
23:55
4,9 km/h
NW
18,6 km/h
13:54  
---
70 %47 %
17:44
87 %
07:39
27,8 klux75,5 klux
14:54
4:10 Std 
12.
August
24,2 C17,3 C
06:50
32,6 C
16:55
1018,6 hPa1016,6 hPa
18:25
1020,1 hPa
07:30
4,5 km/h
NW
19,6 km/h
13:50  
---
65 %45 %
16:55
82 %
07:10
32,8 klux81,5 klux
11:40
5:05 Std 
13.
August
25,8 C16,4 C
06:56
35,9 C
18:11
1013,9 hPa1007,8 hPa
18:46
1019,7 hPa
01:16
4,8 km/h
O-NO
20,7 km/h
15:46  
---
60 %36 %
18:11
82 %
07:01
35,3 klux70,3 klux
13:06
6:40 Std 
14.
August
23,9 C19,6 C
22:58
30,1 C
17:02
1008,4 hPa1006,3 hPa
17:02
1010,4 hPa
08:17
9,5 km/h
W-SW
38,9 km/h
01:56  
0,8 l/m
1:11 Stunden
63 %45 %
17:12
79 %
22:58
27,9 klux99,7 klux
13:07
3:51 Std 
15.
August
20,9 C17,0 C
07:08
27,2 C
16:03
1008,6 hPa1007,4 hPa
02:13
1010,8 hPa
23:39
11,6 km/h
W-SW
35,8 km/h
15:48  
---
10 Minuten
67 %43 %
16:28
86 %
07:43
34 klux109 klux
14:23
5:50 Std 
16.
August
15,6 C13,3 C
23:59
17,2 C
00:04
1012,0 hPa1010,8 hPa
00:04
1013,4 hPa
23:59
9,0 km/h
W
20,6 km/h
22:14  
12,2 l/m
12:20 Stunden
87 %72 %
00:04
91 %
22:59
8 klux31 klux
12:04
--- 
17.
August
13,3 C12,4 C
07:34
14,1 C
16:24
1012,5 hPa1011,3 hPa
06:04
1013,4 hPa
23:16
13,8 km/h
W
22,0 km/h
05:14  
3,8 l/m
9:27 Stunden
91 %89 %
11:54
92 %
02:14
7,6 klux17,4 klux
15:29
--- 
18.
August
14,5 C12,2 C
07:21
18,4 C
14:16
1014,9 hPa1012,4 hPa
00:51
1018,5 hPa
23:47
5,3 km/h
W
19,1 km/h
15:36  
0,2 l/m
25 Minuten
82 %62 %
15:41
92 %
06:51
16,3 klux104,0 klux
13:26
20 Min 
19.
August
15,9 C8,6 C
07:12
24,3 C
15:17
1020,0 hPa1018,5 hPa
00:02
1022,4 hPa
23:57
3,6 km/h
NW
19,8 km/h
14:37  
---
70 %41 %
16:37
90 %
08:32
34 klux88 klux
13:17
5:20 Std 
20.
August
17,2 C13,0 C
06:38
25,9 C
18:33
1023,1 hPa1022,2 hPa
18:33
1024,6 hPa
10:23
1,5 km/h
W-SW
11,5 km/h
19:48  
1,4 l/m
3:00 Stunden
70 %41 %
16:33
87 %
10:53
27,4 klux68,1 klux
15:53
5:15 Std 
21.
August
20,0 C12,9 C
09:06
28,4 C
17:51
1024,0 hPa1020,9 hPa
17:51
1025,8 hPa
09:06
4,3 km/h
SO
23,8 km/h
12:06  
---
57 %33 %
16:21
87 %
09:06
40,5 klux72,2 klux
13:56
12:05 Std 
22.
August
19,0 C9,7 C
06:46
29,9 C
16:41
1019,1 hPa1014,6 hPa
18:31
1023,7 hPa
00:56
5,8 km/h
SO
27,8 km/h
13:26  
---
56 %28 %
17:21
82 %
08:06
38,5 klux86,0 klux
14:11
10:14 Std 
23.
August
18,9 C10,6 C
06:42
28,7 C
15:42
1009,2 hPa1003,8 hPa
18:57
1015,5 hPa
01:07
12,2 km/h
SO
38,2 km/h
14:37  
5,3 l/m
2:41 Stunden
56 %30 %
15:27
83 %
23:58
33,6 klux76,0 klux
14:52
7:25 Std 
24.
August
17,8 C15,0 C
07:23
22,5 C
12:33
1005,3 hPa1004,0 hPa
12:33
1007,9 hPa
23:54
12,8 km/h
SW
48,0 km/h
12:38  
2,7 l/m
2:25 Stunden
79 %63 %
12:33
86 %
05:43
18,1 klux84,3 klux
12:08
2:05 Std 
25.
August
16,2 C13,6 C
07:54
21,2 C
18:19
1013,9 hPa1007,9 hPa
00:04
1017,3 hPa
12:29
22,8 km/h
W-SW
58,6 km/h
02:39  
0,2 l/m
45 Minuten
65 %45 %
18:29
81 %
00:29
18,9 klux65,8 klux
15:24
2:25 Std 
26.
August
21,3 C15,6 C
06:24
28,4 C
16:24
1014,8 hPa1010,3 hPa
23:50
1017,2 hPa
06:34
15,4 km/h
W-SW
33,5 km/h
16:34  
---
53 %39 %
17:14
66 %
07:49
40,0 klux73,0 klux
13:39
11:11 Std 
27.
August
21,4 C17,3 C
23:51
26,1 C
14:05
1010,4 hPa1008,8 hPa
17:00
1012,5 hPa
12:15
10,7 km/h
W-SW
35,9 km/h
09:35  
5,0 l/m
4:51 Stunden
63 %50 %
14:00
87 %
23:36
17,7 klux101,0 klux
13:30
50 Min 
28.
August
16,2 C13,3 C
07:26
21,5 C
18:56
1017,2 hPa1010,8 hPa
00:01
1022,6 hPa
23:57
2,7 km/h
W
15,4 km/h
00:31  
9,0 l/m
5:45 Stunden
82 %67 %
18:56
90 %
07:46
21 klux69 klux
15:56
1:30 Std 
29.
August
19,9 C10,4 C
04:57
30,8 C
15:57
1021,2 hPa1017,6 hPa
18:32
1024,0 hPa
07:02
2,7 km/h
SO
21,6 km/h
16:07  
---
73 %49 %
16:52
90 %
08:22
37,9 klux85,4 klux
14:42
8:25 Std 
30.
August
24,7 C16,5 C
07:13
34,8 C
15:43
1016,7 hPa1014,1 hPa
16:18
1019,9 hPa
00:33
4,7 km/h
W-SW
26,8 km/h
13:58  
---
67 %40 %
15:08
89 %
08:58
37,3 klux67,9 klux
13:43
9:05 Std 
31.
August
25,5 C17,5 C
07:29
34,2 C
16:54
1011,4 hPa1007,2 hPa
19:29
1015,8 hPa
02:04
11,5 km/h
W-SW
44,0 km/h
18:09  
---
57 %29 %
14:54
85 %
08:29
38,7 klux67,5 klux
13:34
11:00 Std 



August
2015

Temperatur

  

Luftdruck

  

Wind

  

Regen

  

Luftfeuchte

  

Helligkeit

Sonnen-
schein

Min

Max

Min

Max

Max

Max

Min

Max

Max

Max

20,6 C

8,6 C

07:12 Uhr
19.08.2015

39,3 C

17:25 Uhr
07.08.2015

1015,2 hPa

1003,8 hPa

18:57 Uhr
23.08.2015

1025,8 hPa

09:06 Uhr
21.08.2015

7,7 km/h

W-SW

58,6 km/h

02:39 Uhr
25.08.2015

12,2 l/m

12:20 Stunden
16.08.2015

66 %

26 %

17:51 Uhr
02.08.2015

92 %

02:14 Uhr
17.08.2015

30,8 klux

109,0 klux

14:23 Uhr
15.08.2015

12:45 Std

am
03.08.2015

Gesamt

Gesamt

51,1 l/m

14 Tage
48:15 h

195:52 Std


Wetter-Diagramme August 2015     Heinzenberg / Taunus   
TemperaturLuftfeuchte
SolarstrahlungLuftdruck
HelligkeitSonnenschein
RegenmengeRegendauer
Wind-GeschwindigkeitWind-Richtung